LGL32PR LPPR-ELLX

Flight info

Callsign LGL32PR
Flight time 1h 53m
Altitude 34000
Route TURON P600 ASDEB DCT LOTEE DCT AZFIC UN741 MOKOR UN873 OBATO UM163 LEQOS DCT CTL DCT MMD
Aircraft B738/M-SDE2E3FGHIRWXY/LB1

Departure

Time 2026-05-04 06:48
Airport Francisco de Sá Carneiro Airport (LPPR)

Arrival

Time 2026-05-04 08:42
Airport Luxembourg-Findel International Airport (ELLX)
Time Latitude Longitude Altitude Speed Heading
2026-05-04 06:40 41.23871 -8.67382 255 ft 0 kts 77°
2026-05-04 06:44 41.23867 -8.67404 256 ft 3 kts 77°
2026-05-04 06:44 41.23863 -8.67431 256 ft 3 kts 77°
2026-05-04 06:44 41.23861 -8.67446 256 ft 1 kts 134°
2026-05-04 06:45 41.23864 -8.67451 256 ft 0 kts 179°
2026-05-04 06:46 41.23842 -8.67451 256 ft 7 kts 179°
2026-05-04 06:48 41.25006 -8.68169 279 ft 170 kts 349°
2026-05-04 06:48 41.26196 -8.68464 1187 ft 169 kts 348°
2026-05-04 06:49 41.27362 -8.68765 2165 ft 177 kts 348°
2026-05-04 06:50 41.38703 -8.71772 6745 ft 259 kts 347°
2026-05-04 06:51 41.40483 -8.72253 7523 ft 264 kts 347°
2026-05-04 06:51 41.42302 -8.72695 8325 ft 268 kts 355°
2026-05-04 06:51 41.44177 -8.72420 9148 ft 274 kts
2026-05-04 06:51 41.46060 -8.71909 9970 ft 278 kts
2026-05-04 06:52 41.47987 -8.71391 10522 ft 291 kts
2026-05-04 06:52 41.50065 -8.70847 10705 ft 316 kts
2026-05-04 06:52 41.52299 -8.70270 10954 ft 336 kts
2026-05-04 06:52 41.54625 -8.69674 11522 ft 345 kts
2026-05-04 06:53 41.57000 -8.69069 12255 ft 349 kts
2026-05-04 06:53 41.59393 -8.68462 13002 ft 352 kts
2026-05-04 06:53 41.61820 -8.67847 13706 ft 357 kts
2026-05-04 06:53 41.64276 -8.67222 14361 ft 362 kts
2026-05-04 06:54 41.66757 -8.66589 15064 ft 364 kts
2026-05-04 06:54 41.69217 -8.65961 15752 ft 366 kts
2026-05-04 06:54 41.71725 -8.65320 16429 ft 369 kts
2026-05-04 06:54 41.74254 -8.64673 17094 ft 372 kts
2026-05-04 06:55 41.76806 -8.64020 17744 ft 375 kts
2026-05-04 06:55 41.79382 -8.63360 18379 ft 378 kts
2026-05-04 06:55 41.81973 -8.62696 18950 ft 380 kts
2026-05-04 06:55 41.84577 -8.62027 19546 ft 382 kts
2026-05-04 06:56 41.87194 -8.61355 20149 ft 384 kts
2026-05-04 06:57 42.05043 -8.56756 23736 ft 399 kts
2026-05-04 06:58 42.07782 -8.56079 24132 ft 401 kts
2026-05-04 06:58 42.10553 -8.55574 24493 ft 404 kts
2026-05-04 06:58 42.13373 -8.55152 24791 ft 409 kts
2026-05-04 06:58 42.16217 -8.54747 25174 ft 411 kts
2026-05-04 06:59 42.19071 -8.54333 25563 ft 413 kts
2026-05-04 06:59 42.21899 -8.53909 25911 ft 416 kts
2026-05-04 06:59 42.24796 -8.53462 26265 ft 419 kts
2026-05-04 06:59 42.27702 -8.53005 26596 ft 422 kts
2026-05-04 07:01 42.48564 -8.49562 29049 ft 438 kts 10°
2026-05-04 07:01 42.51456 -8.48228 29508 ft 441 kts 21°
2026-05-04 07:02 42.54119 -8.46249 29960 ft 444 kts 31°
2026-05-04 07:02 42.56554 -8.43630 30308 ft 448 kts 37°
2026-05-04 07:02 42.58902 -8.40838 30593 ft 449 kts 38°
2026-05-04 07:02 42.61239 -8.38003 30872 ft 451 kts 39°
2026-05-04 07:03 42.63576 -8.35162 31187 ft 451 kts 39°
2026-05-04 07:03 42.65919 -8.32328 31486 ft 452 kts 39°
2026-05-04 07:03 42.68282 -8.29486 31725 ft 454 kts 38°
2026-05-04 07:03 42.70651 -8.26652 32011 ft 454 kts 38°
2026-05-04 07:04 42.75450 -8.20932 32070 ft 463 kts 39°
2026-05-04 07:04 42.80347 -8.15095 32072 ft 473 kts 39°
2026-05-04 07:05 42.85350 -8.09116 32063 ft 482 kts 39°
2026-05-04 07:05 42.90421 -8.03039 32064 ft 488 kts 39°
2026-05-04 07:06 42.98063 -7.93852 32060 ft 488 kts 39°
2026-05-04 07:07 43.03168 -7.87698 32049 ft 489 kts 39°
2026-05-04 07:09 43.23468 -7.63090 32060 ft 488 kts 39°
2026-05-04 07:09 43.28549 -7.56896 32042 ft 488 kts 40°
2026-05-04 07:10 43.33629 -7.50688 32054 ft 489 kts 40°
2026-05-04 07:12 43.53942 -7.25716 32038 ft 491 kts 40°
2026-05-04 07:12 43.59031 -7.19424 32034 ft 491 kts 40°
2026-05-04 07:13 43.64122 -7.13114 32037 ft 492 kts 41°
2026-05-04 07:13 43.69226 -7.06773 32040 ft 493 kts 41°
2026-05-04 07:14 43.81946 -6.90903 32027 ft 494 kts 41°
2026-05-04 07:15 43.87049 -6.84510 32029 ft 494 kts 41°
2026-05-04 07:15 43.92151 -6.78102 32027 ft 495 kts 41°
2026-05-04 07:16 43.97259 -6.71672 32038 ft 495 kts 41°
2026-05-04 07:16 44.02360 -6.65234 32030 ft 495 kts 41°
2026-05-04 07:17 44.07459 -6.58784 32027 ft 496 kts 42°
2026-05-04 07:17 44.12536 -6.52345 32022 ft 496 kts 42°
2026-05-04 07:18 44.17629 -6.45871 32007 ft 496 kts 42°
2026-05-04 07:18 44.22722 -6.39381 32013 ft 496 kts 42°
2026-05-04 07:19 44.27821 -6.32867 32012 ft 496 kts 42°
2026-05-04 07:19 44.32910 -6.26349 32008 ft 497 kts 43°
2026-05-04 07:20 44.38006 -6.19807 32013 ft 497 kts 43°
2026-05-04 07:20 44.43096 -6.13256 32004 ft 497 kts 43°
2026-05-04 07:22 44.63364 -5.87006 31997 ft 497 kts 43°
2026-05-04 07:23 44.68410 -5.80372 32001 ft 497 kts 44°
2026-05-04 07:23 44.73359 -5.73596 32001 ft 497 kts 45°
2026-05-04 07:24 44.78294 -5.66770 31990 ft 496 kts 45°
2026-05-04 07:24 44.83201 -5.59996 32003 ft 496 kts 45°
2026-05-04 07:26 45.02951 -5.32668 31992 ft 497 kts 45°
2026-05-04 07:27 45.07882 -5.25802 32020 ft 499 kts 45°
2026-05-04 07:27 45.10363 -5.22340 32190 ft 500 kts 45°
2026-05-04 07:27 45.12829 -5.18894 32479 ft 497 kts 45°
2026-05-04 07:28 45.15292 -5.15450 32797 ft 495 kts 45°
2026-05-04 07:28 45.17737 -5.12026 33041 ft 495 kts 45°
2026-05-04 07:28 45.20185 -5.08593 33246 ft 495 kts 45°
2026-05-04 07:28 45.22629 -5.05160 33465 ft 495 kts 45°
2026-05-04 07:29 45.25039 -5.01772 33686 ft 494 kts 45°
2026-05-04 07:29 45.27480 -4.98335 33883 ft 494 kts 45°
2026-05-04 07:29 45.32367 -4.91442 33978 ft 496 kts 45°
2026-05-04 07:30 45.37251 -4.84536 33983 ft 494 kts 46°
2026-05-04 07:30 45.42121 -4.77631 33994 ft 493 kts 46°
2026-05-04 07:31 45.46976 -4.70729 33995 ft 492 kts 46°
2026-05-04 07:33 45.66311 -4.43068 33989 ft 493 kts 46°
2026-05-04 07:33 45.71150 -4.36100 33992 ft 494 kts 46°
2026-05-04 07:34 45.75991 -4.29111 33984 ft 494 kts 46°
2026-05-04 07:34 45.80827 -4.22111 33980 ft 494 kts 46°
2026-05-04 07:35 45.85662 -4.15093 33987 ft 494 kts 46°
2026-05-04 07:35 45.90496 -4.08060 33997 ft 494 kts 46°
2026-05-04 07:36 45.95286 -4.01071 33978 ft 494 kts 46°
2026-05-04 07:38 46.14565 -3.72758 33988 ft 496 kts 47°
2026-05-04 07:38 46.19380 -3.65638 33986 ft 496 kts 47°
2026-05-04 07:39 46.24191 -3.58506 33964 ft 495 kts 47°
2026-05-04 07:39 46.29005 -3.51351 33979 ft 496 kts 47°
2026-05-04 07:40 46.33810 -3.44191 33988 ft 497 kts 47°
2026-05-04 07:40 46.38620 -3.37002 33968 ft 497 kts 47°
2026-05-04 07:41 46.43398 -3.29843 33985 ft 497 kts 47°
2026-05-04 07:41 46.48197 -3.22631 33985 ft 497 kts 47°
2026-05-04 07:42 46.52995 -3.15402 33982 ft 498 kts 48°
2026-05-04 07:42 46.57614 -3.07934 33972 ft 496 kts 57°
2026-05-04 07:43 46.61135 -2.99347 33975 ft 494 kts 63°
2026-05-04 07:43 46.64521 -2.90618 33975 ft 494 kts 63°
2026-05-04 07:44 46.67928 -2.81977 33951 ft 495 kts 62°
2026-05-04 07:44 46.71384 -2.73297 33972 ft 496 kts 62°
2026-05-04 07:45 46.74285 -2.66006 33979 ft 496 kts 62°
2026-05-04 07:45 46.77719 -2.57337 33973 ft 497 kts 63°
2026-05-04 07:46 46.81176 -2.48576 33974 ft 497 kts 63°
2026-05-04 07:46 46.84625 -2.39810 33968 ft 497 kts 63°
2026-05-04 07:47 46.88122 -2.31091 33971 ft 498 kts 61°
2026-05-04 07:49 47.03723 -1.97796 33963 ft 502 kts 39°
2026-05-04 07:49 47.09357 -1.91736 33973 ft 502 kts 37°
2026-05-04 07:50 47.14977 -1.85635 33971 ft 502 kts 38°
2026-05-04 07:50 47.20550 -1.79454 33967 ft 502 kts 38°
2026-05-04 07:51 47.26138 -1.73288 33967 ft 501 kts 38°
2026-05-04 07:51 47.31722 -1.67110 33969 ft 501 kts 38°
2026-05-04 07:52 47.36812 -1.60194 33970 ft 496 kts 53°
2026-05-04 07:52 47.41023 -1.52130 33977 ft 496 kts 55°
2026-05-04 07:54 47.57912 -1.19789 33966 ft 498 kts 54°
2026-05-04 07:55 47.62152 -1.11677 33981 ft 498 kts 54°
2026-05-04 07:55 47.66389 -1.03539 33977 ft 498 kts 54°
2026-05-04 07:56 47.70627 -0.95378 33981 ft 498 kts 54°
2026-05-04 07:56 47.74826 -0.87271 33977 ft 498 kts 54°
2026-05-04 07:57 47.79047 -0.79110 33972 ft 497 kts 55°
2026-05-04 07:57 47.83259 -0.70940 33969 ft 497 kts 55°
2026-05-04 07:58 47.87461 -0.62765 33974 ft 497 kts 55°
2026-05-04 07:58 47.91659 -0.54568 33968 ft 497 kts 55°
2026-05-04 07:59 47.95848 -0.46368 33971 ft 497 kts 55°
2026-05-04 07:59 48.00036 -0.38142 33968 ft 497 kts 55°
2026-05-04 08:00 48.04189 -0.29964 33977 ft 497 kts 55°
2026-05-04 08:02 48.16563 0.06455 33971 ft 490 kts 68°
2026-05-04 08:02 48.19425 0.15665 33988 ft 490 kts 68°
2026-05-04 08:03 48.22302 0.24936 33969 ft 490 kts 68°
2026-05-04 08:03 48.25171 0.34215 33971 ft 490 kts 68°
2026-05-04 08:04 48.28030 0.43506 33942 ft 489 kts 69°
2026-05-04 08:04 48.30871 0.52775 33964 ft 487 kts 69°
2026-05-04 08:05 48.33688 0.62002 33968 ft 485 kts 69°
2026-05-04 08:05 48.36494 0.71224 33966 ft 484 kts 69°
2026-05-04 08:06 48.39272 0.80391 33978 ft 484 kts 69°
2026-05-04 08:06 48.42056 0.89611 33957 ft 483 kts 70°
2026-05-04 08:08 48.53118 1.26595 33973 ft 484 kts 71°
2026-05-04 08:11 48.65445 1.68783 33983 ft 490 kts 74°
2026-05-04 08:11 48.68934 1.83325 33971 ft 491 kts 75°
2026-05-04 08:12 48.71268 1.93089 34006 ft 493 kts 75°
2026-05-04 08:12 48.73635 2.02870 33988 ft 495 kts 75°
2026-05-04 08:13 48.75991 2.12607 33999 ft 495 kts 74°
2026-05-04 08:13 48.78568 2.22313 33987 ft 497 kts 72°
2026-05-04 08:14 48.81215 2.32008 33990 ft 497 kts 72°
2026-05-04 08:16 48.91503 2.70946 33992 ft 498 kts 73°
2026-05-04 08:16 48.94060 2.80742 33984 ft 499 kts 73°
2026-05-04 08:17 48.96573 2.90380 33937 ft 476 kts 73°
2026-05-04 08:17 48.97779 2.95014 33651 ft 467 kts 73°
2026-05-04 08:17 48.98962 2.99586 33216 ft 462 kts 74°
2026-05-04 08:19 49.06921 3.30632 30169 ft 439 kts 74°
2026-05-04 08:19 49.08022 3.34955 29737 ft 435 kts 74°
2026-05-04 08:20 49.09098 3.39189 29272 ft 431 kts 74°
2026-05-04 08:20 49.10177 3.43447 28805 ft 428 kts 74°
2026-05-04 08:20 49.11245 3.47666 28353 ft 425 kts 74°
2026-05-04 08:20 49.12304 3.51856 27888 ft 421 kts 74°
2026-05-04 08:21 49.13355 3.56020 27395 ft 418 kts 73°
2026-05-04 08:21 49.14307 3.60194 26938 ft 414 kts 78°
2026-05-04 08:21 49.15070 3.64408 26541 ft 409 kts 80°
2026-05-04 08:21 49.15763 3.68601 26144 ft 405 kts 81°
2026-05-04 08:22 49.16434 3.72765 25738 ft 402 kts 81°
2026-05-04 08:22 49.17103 3.76905 25343 ft 399 kts 80°
2026-05-04 08:24 49.21766 4.04959 22544 ft 380 kts 79°
2026-05-04 08:24 49.22415 4.08858 22124 ft 377 kts 79°
2026-05-04 08:24 49.23058 4.12731 21713 ft 374 kts 79°
2026-05-04 08:24 49.23695 4.16581 21336 ft 371 kts 79°
2026-05-04 08:25 49.24326 4.20394 20950 ft 368 kts 79°
2026-05-04 08:25 49.24950 4.24178 20547 ft 366 kts 79°
2026-05-04 08:25 49.25569 4.27942 20148 ft 364 kts 79°
2026-05-04 08:25 49.26184 4.31692 19764 ft 361 kts 79°
2026-05-04 08:26 49.26792 4.35405 19394 ft 359 kts 79°
2026-05-04 08:27 49.30906 4.60743 16694 ft 343 kts 79°
2026-05-04 08:28 49.31475 4.64279 16313 ft 341 kts 79°
2026-05-04 08:28 49.32040 4.67798 15936 ft 338 kts 79°
2026-05-04 08:28 49.32599 4.71288 15566 ft 336 kts 79°
2026-05-04 08:28 49.33155 4.74764 15159 ft 335 kts 78°
2026-05-04 08:29 49.33712 4.78258 14683 ft 337 kts 78°
2026-05-04 08:29 49.34268 4.81747 14301 ft 336 kts 78°
2026-05-04 08:29 49.34825 4.85200 13872 ft 335 kts 77°
2026-05-04 08:31 49.38824 5.08307 11759 ft 313 kts 78°
2026-05-04 08:33 49.42408 5.29376 10060 ft 285 kts 78°
2026-05-04 08:33 49.42900 5.32287 9854 ft 280 kts 78°
2026-05-04 08:35 49.46218 5.52106 7902 ft 273 kts 77°
2026-05-04 08:35 49.46690 5.54945 7616 ft 275 kts 77°
2026-05-04 08:35 49.47164 5.57793 7319 ft 275 kts 77°
2026-05-04 08:35 49.47635 5.60635 7054 ft 274 kts 77°
2026-05-04 08:37 49.50536 5.78226 4628 ft 292 kts 77°
2026-05-04 08:37 49.51032 5.81246 4316 ft 289 kts 77°
2026-05-04 08:37 49.51519 5.84219 4091 ft 283 kts 77°
2026-05-04 08:38 49.51993 5.87119 3886 ft 276 kts 77°
2026-05-04 08:38 49.52450 5.89918 3741 ft 269 kts 77°
2026-05-04 08:38 49.52898 5.92665 3651 ft 259 kts 77°
2026-05-04 08:40 49.58442 6.09793 2558 ft 248 kts 61°
2026-05-04 08:40 49.59265 6.12022 2238 ft 230 kts 61°
2026-05-04 08:40 49.60029 6.14091 1919 ft 214 kts 62°
2026-05-04 08:41 49.60723 6.15960 1720 ft 187 kts 61°
2026-05-04 08:41 49.61359 6.17641 1332 ft 174 kts 62°
2026-05-04 08:41 49.61907 6.19168 1183 ft 152 kts 62°
2026-05-04 08:41 49.62371 6.20425 1228 ft 117 kts 59°
2026-05-04 08:42 49.62709 6.21343 1229 ft 82 kts 61°
2026-05-04 08:42 49.62935 6.21931 1214 ft 47 kts 58°
2026-05-04 08:42 49.63103 6.22094 1218 ft 29 kts 334°
2026-05-04 08:42 49.63233 6.21876 1227 ft 27 kts 317°
2026-05-04 08:43 49.63365 6.21743 1229 ft 0 kts 331°